Weather History for Rolla, ND

Change the Weather History Date:

Friday, November 25, 2011

  Actual Average (KRUG) Record (KRUG)
Temperature  
Mean Temperature 29 °F -  
Max Temperature 32 °F 29 °F 59 °F (1960)
Min Temperature 26 °F 14 °F -12 °F (1977)
Degree Days  
Heating Degree Days 36    
Moisture  
Dew Point 29 °F    
Average Humidity 100    
Maximum Humidity 100    
Minimum Humidity 100    
Precipitation  
Precipitation 0.00 in - - ()
Sea Level Pressure  
Sea Level Pressure 29.74 in    
Wind  
Wind Speed 11 mph (NE)    
Max Wind Speed 18 mph    
Max Gust Speed 16 mph    
Visibility 7 miles    
Events Rain    
Averages and records for this station are not official NWS values.
T = Trace of Precipitation, MM = Missing Value Source: NWS Daily Summary

Daily Weather History Graph

Daily Weather History Graph

Search for Another Location

Airport:

Trip Planner

Search our weather history database for the weather conditions in past years. The results will help you decide how hot, cold, wet, or windy it might be!

Date:

Astronomy

Nov. 25, 2011 Rise Set
Actual Time 8:02 AM CST 4:48 PM CST
Civil Twilight 7:26 AM CST 5:23 PM CST
Nautical Twilight 6:47 AM CST 6:03 PM CST
Astronomical Twilight 6:09 AM CST 6:40 PM CST
Moon 8:37 AM CST (11/25) 5:11 PM CST (11/25)
Length of Visible Light 9h 57m
Length of Day
8h 45m
New Moon, 0% of the Moon is Illuminated
Nov 25
New Moon
Dec 2
First Quarter
Dec 10
Full
Dec 17
Last Quarter
Dec 24
New

Hourly Weather History & Observations

Time (CST) Temp. Windchill Dew Point Humidity Pressure Visibility Wind Dir Wind Speed Gust Speed Precip Events Conditions
12:15 AM 30.2 °F 18.1 °F 30.2 °F 100% 29.73 in 10.0 mi North 18.4 mph - N/A   Overcast
12:55 AM 30.2 °F 19.8 °F 30.2 °F 100% 29.73 in 2.0 mi North 13.8 mph - N/A   Overcast
1:15 AM 30.2 °F 20.8 °F 30.2 °F 100% 29.74 in 2.0 mi North 11.5 mph 16.1 mph N/A   Overcast
1:35 AM 30.2 °F 19.8 °F 30.2 °F 100% 29.73 in 1.5 mi North 13.8 mph - N/A   Overcast
2:15 AM 30.2 °F 19.8 °F 30.2 °F 100% 29.73 in 0.8 mi North 13.8 mph - N/A   Overcast
2:35 AM 30.2 °F 20.2 °F 30.2 °F 100% 29.73 in 0.8 mi North 12.7 mph - N/A   Overcast
2:55 AM 30.2 °F 20.8 °F 30.2 °F 100% 29.74 in 1.0 mi NE 11.5 mph - N/A   Overcast
3:15 AM 30.2 °F 21.3 °F 30.2 °F 100% 29.76 in 1.5 mi NE 10.4 mph - N/A   Overcast
3:35 AM 30.2 °F 20.2 °F 30.2 °F 100% 29.75 in 0.8 mi ENE 12.7 mph - N/A   Overcast
3:55 AM 30.2 °F 22.6 °F 30.2 °F 100% 29.75 in 4.0 mi NE 8.1 mph - N/A   Overcast
4:35 AM 28.4 °F 19.1 °F 28.4 °F 100% 29.75 in 3.0 mi NE 10.4 mph - N/A   Overcast
4:55 AM 28.4 °F 19.1 °F 28.4 °F 100% 29.75 in 9.0 mi ENE 10.4 mph - N/A   Overcast
5:15 AM 28.4 °F 20.4 °F 28.4 °F 100% 29.75 in 10.0 mi ENE 8.1 mph - N/A   Overcast
5:35 AM 28.4 °F 18.5 °F 28.4 °F 100% 29.75 in 10.0 mi ENE 11.5 mph - N/A   Overcast
5:55 AM 28.4 °F 20.4 °F 28.4 °F 100% 29.76 in 10.0 mi NE 8.1 mph - N/A   Overcast
6:15 AM 28.4 °F 19.7 °F 28.4 °F 100% 29.75 in 10.0 mi East 9.2 mph - N/A   Overcast
6:35 AM 28.4 °F 19.1 °F 28.4 °F 100% 29.75 in 1.5 mi ENE 10.4 mph - N/A   Overcast
6:55 AM 28.4 °F 20.4 °F 28.4 °F 100% 29.75 in 1.5 mi ENE 8.1 mph - N/A   Overcast
7:15 AM 28.4 °F 19.1 °F 28.4 °F 100% 29.76 in 1.8 mi ENE 10.4 mph - N/A   Overcast
7:55 AM 26.6 °F 17.5 °F 26.6 °F 100% 29.75 in 10.0 mi East 9.2 mph - N/A   Overcast
8:15 AM 26.6 °F 17.5 °F 26.6 °F 100% 29.75 in 10.0 mi East 9.2 mph - N/A   Overcast
8:35 AM 26.6 °F 19.1 °F 26.6 °F 100% 29.76 in 10.0 mi ENE 6.9 mph - N/A Rain Light Freezing Rain
8:55 AM 26.6 °F 18.2 °F 26.6 °F 100% 29.76 in 10.0 mi ENE 8.1 mph - N/A   Overcast
9:15 AM 26.6 °F 18.2 °F 26.6 °F 100% 29.77 in 4.0 mi East 8.1 mph - N/A   Overcast
9:35 AM 26.6 °F 18.2 °F 26.6 °F 100% 29.77 in 10.0 mi East 8.1 mph - N/A   Overcast
10:15 AM 26.6 °F 18.2 °F 26.6 °F 100% 29.77 in 5.0 mi East 8.1 mph - N/A   Overcast
10:35 AM 26.6 °F 17.5 °F 26.6 °F 100% 29.76 in 3.0 mi ENE 9.2 mph - N/A   Overcast
10:55 AM 26.6 °F 18.2 °F 26.6 °F 100% 29.76 in 1.2 mi East 8.1 mph - N/A   Overcast
11:15 AM 28.4 °F 19.7 °F 28.4 °F 100% 29.75 in 3.0 mi East 9.2 mph - N/A   Overcast
11:35 AM 28.4 °F 19.1 °F 28.4 °F 100% 29.74 in 5.0 mi East 10.4 mph - N/A   Overcast
11:55 AM 28.4 °F 19.7 °F 28.4 °F 100% 29.73 in 10.0 mi East 9.2 mph - N/A   Overcast
12:15 PM 28.4 °F 19.7 °F 28.4 °F 100% 29.73 in 10.0 mi ESE 9.2 mph - N/A   Overcast
12:35 PM 28.4 °F 20.4 °F 28.4 °F 100% 29.73 in 10.0 mi ESE 8.1 mph - N/A   Overcast
12:55 PM 28.4 °F 20.4 °F 28.4 °F 100% 29.72 in 10.0 mi ESE 8.1 mph - N/A   Overcast
1:15 PM 28.4 °F 20.4 °F 28.4 °F 100% 29.71 in 10.0 mi East 8.1 mph - N/A   Overcast
1:35 PM 28.4 °F 20.4 °F 28.4 °F 100% 29.71 in 10.0 mi ENE 8.1 mph - N/A   Overcast
1:55 PM 28.4 °F 21.2 °F 28.4 °F 100% 29.70 in 10.0 mi ENE 6.9 mph - N/A   Overcast
2:15 PM 28.4 °F 19.7 °F 28.4 °F 100% 29.69 in 10.0 mi NE 9.2 mph - N/A   Overcast
2:35 PM 30.2 °F 23.4 °F 30.2 °F 100% 29.70 in 10.0 mi ENE 6.9 mph - N/A   Overcast
2:55 PM 30.2 °F 22.6 °F 30.2 °F 100% 29.70 in 10.0 mi NE 8.1 mph - N/A   Overcast
3:15 PM 30.2 °F 23.4 °F 30.2 °F 100% 29.72 in 10.0 mi NNE 6.9 mph - N/A   Overcast
3:35 PM 32.0 °F 24.8 °F 32.0 °F 100% 29.72 in 10.0 mi NNE 8.1 mph - N/A   Overcast
3:55 PM 32.0 °F 24.2 °F 32.0 °F 100% 29.73 in 10.0 mi NNE 9.2 mph - N/A   Overcast
4:15 PM 30.2 °F 21.9 °F 30.2 °F 100% 29.75 in 10.0 mi NNE 9.2 mph - N/A   Overcast
4:35 PM 30.2 °F 23.4 °F 30.2 °F 100% 29.75 in 10.0 mi NE 6.9 mph - N/A   Overcast
4:55 PM 30.2 °F 21.9 °F 30.2 °F 100% 29.76 in 10.0 mi NE 9.2 mph - N/A   Overcast
5:15 PM 30.2 °F 22.6 °F 30.2 °F 100% 29.77 in 10.0 mi NE 8.1 mph - N/A   Overcast
5:35 PM 28.4 °F 20.4 °F 28.4 °F 100% 29.77 in 10.0 mi NNE 8.1 mph - N/A   Overcast
5:55 PM 28.4 °F 20.4 °F 28.4 °F 100% 29.78 in 10.0 mi NNE 8.1 mph - N/A   Overcast
6:15 PM 28.4 °F 18.5 °F 28.4 °F 100% 29.78 in 10.0 mi NNE 11.5 mph - N/A   Overcast
6:35 PM 28.4 °F 19.7 °F 28.4 °F 100% 29.78 in 10.0 mi NNE 9.2 mph - N/A   Overcast
6:55 PM 28.4 °F 19.7 °F 28.4 °F 100% 29.78 in 10.0 mi NNE 9.2 mph - N/A   Overcast
7:35 PM 28.4 °F 19.7 °F 28.4 °F 100% 29.79 in 9.0 mi NE 9.2 mph - N/A   Overcast
7:55 PM 28.4 °F 20.4 °F 28.4 °F 100% 29.79 in 9.0 mi NE 8.1 mph - N/A   Overcast
8:15 PM 28.4 °F 20.4 °F 28.4 °F 100% 29.79 in 10.0 mi NNE 8.1 mph - N/A   Overcast
8:35 PM 28.4 °F 19.7 °F 28.4 °F 100% 29.80 in 10.0 mi NNE 9.2 mph - N/A   Overcast
8:55 PM 28.4 °F 22.2 °F 28.4 °F 100% 29.82 in 10.0 mi NE 5.8 mph - N/A   Overcast
9:15 PM 28.4 °F 19.7 °F 28.4 °F 100% 29.83 in 5.0 mi NNE 9.2 mph - 0.01 in   Overcast
9:35 PM 28.4 °F 21.2 °F 28.4 °F 100% 29.83 in 9.0 mi NNE 6.9 mph - 0.01 in   Overcast
10:15 PM 28.4 °F 21.2 °F 28.4 °F 100% 29.84 in 5.0 mi NE 6.9 mph - N/A   Overcast
10:35 PM 28.4 °F 22.2 °F 28.4 °F 100% 29.85 in 3.0 mi NE 5.8 mph - N/A Rain Light Freezing Rain
10:55 PM 28.4 °F 22.2 °F 28.4 °F 100% 29.85 in 2.5 mi East 5.8 mph - 0.05 in Rain Light Freezing Rain
11:15 PM 28.4 °F - 28.4 °F 100% 29.86 in 2.5 mi Calm Calm - 0.03 in Rain Light Freezing Rain
11:35 PM 28.4 °F - 28.4 °F 100% 29.86 in 3.0 mi Calm Calm - 0.05 in Rain Light Freezing Rain
11:55 PM 30.2 °F 26.7 °F 30.2 °F 100% 29.87 in 2.5 mi South 3.5 mph - 0.12 in Snow Light Snow